This demonstration page uses our WeatherBlox Daily Observations layout. Learn more.

Hourly Observations for June 19, 2017

Temp ( °F °C ) Dew Point ( °F °C ) Humidity (%) Winds ( mph kmh ) Pressure ( in mb ) Visibility ( mi km ) Precip ( " mm )
1:35 am 01:35 Clear 81 27 73 23 79 79 SSW 14 22 29.83 1010 10 16.09344 0 0
1:55 am 01:55 Clear 81 27 73 23 79 79 SSW 16 26 29.83 1010 10 16.09344 0 0
2:15 am 02:15 Clear 81 27 73 23 79 79 SSW 14 22 29.83 1010 10 16.09344 0 0
2:35 am 02:35 Clear 79 26 73 23 84 84 SSW 12 19 29.83 1010 10 16.09344 0 0
2:55 am 02:55 Clear 79 26 73 23 84 84 SSW 12 19 29.83 1010 10 16.09344 0 0
3:15 am 03:15 Clear 79 26 73 23 84 84 SW 10 17 29.83 1010 10 16.09344 0 0
3:35 am 03:35 Clear 79 26 73 23 84 84 SSW 8 13 29.83 1010 10 16.09344 0 0
3:55 am 03:55 Partly Cloudy 79 26 73 23 84 84 SSW 7 11 29.83 1010 10 16.09344 0 0
4:15 am 04:15 Mostly Cloudy 79 26 73 23 84 84 SSW 7 11 29.83 1010 10 16.09344 0 0
4:35 am 04:35 Mostly Cloudy 79 26 73 23 84 84 SSW 6 9 29.83 1010 10 16.09344 0 0
4:55 am 04:55 Mostly Cloudy 79 26 73 23 84 84 SSW 7 11 29.83 1010 10 16.09344 0 0
5:15 am 05:15 Mostly Cloudy 79 26 73 23 84 84 SSW 8 13 29.83 1010 10 16.09344 0 0
5:35 am 05:35 Cloudy 79 26 73 23 84 84 SSW 8 13 29.85 1011 10 16.09344 0 0
5:55 am 05:55 Cloudy 77 25 73 23 89 89 SSW 8 13 29.85 1011 10 16.09344 0 0
6:15 am 06:15 Cloudy 79 26 73 23 84 84 SSW 9 15 29.85 1011 10 16.09344 0 0
6:35 am 06:35 Partly Cloudy 79 26 73 23 84 84 SSW 9 15 29.85 1011 10 16.09344 0 0
6:55 am 06:55 Partly Cloudy 79 26 73 23 84 84 SSW 12 19 29.85 1011 10 16.09344 0 0
7:15 am 07:15 Sunny 79 26 73 23 84 84 SSW 7 11 29.85 1011 10 16.09344 0 0
7:35 am 07:35 Partly Cloudy 79 26 73 23 84 84 SSW 7 11 29.85 1011 10 16.09344 0 0
7:55 am 07:55 Partly Cloudy 79 26 73 23 84 84 SW 5 7 29.88 1012 10 16.09344 0 0
8:15 am 08:15 Sunny 81 27 73 23 79 79 SSW 7 11 29.88 1012 10 16.09344 0 0
8:35 am 08:35 Partly Cloudy 81 27 72 22 74 74 S 8 13 29.85 1011 10 16.09344 0 0
8:55 am 08:55 Partly Cloudy 82 28 73 23 74 74 SSW 12 19 29.85 1011 10 16.09344 0 0
9:15 am 09:15 Partly Cloudy 82 28 73 23 74 74 S 16 26 29.85 1011 10 16.09344 0 0
9:35 am 09:35 Sunny 82 28 73 23 74 74 S 15 24 29.85 1011 10 16.09344 0 0
9:55 am 09:55 Partly Cloudy 84 29 73 23 70 70 SSW 13 20 29.83 1010 10 16.09344 0 0
10:15 am 10:15 Partly Cloudy with Nearby Thunderstorms 86 30 73 23 66 66 SW 12 19 29.83 1010 10 16.09344 0 0
10:35 am 10:35 Mostly Cloudy 82 28 73 23 74 74 SSW 9 15 29.85 1011 10 16.09344 0 0
10:55 am 10:55 Partly Cloudy 86 30 73 23 66 66 SSW 13 20 29.83 1010 10 16.09344 0 0
11:15 am 11:15 Mostly Cloudy 86 30 73 23 66 66 SSW 14 22 29.83 1010 10 16.09344 0 0
11:35 am 11:35 Partly Cloudy 88 31 73 23 62 62 S 14 22 29.83 1010 10 16.09344 0 0
11:55 am 11:55 Mostly Cloudy 88 31 73 23 62 62 SSW 15 24 29.83 1010 10 16.09344 0 0
12:15 pm 12:15 Partly Cloudy 88 31 73 23 62 62 SSW 15 24 29.83 1010 10 16.09344 0 0
12:35 pm 12:35 Partly Cloudy 88 31 73 23 62 62 SSW 13 20 29.8 1009 10 16.09344 0 0
12:55 pm 12:55 Partly Cloudy 88 31 73 23 62 62 S 17 28 29.8 1009 10 16.09344 0 0
1:15 pm 13:15 Partly Cloudy 88 31 73 23 62 62 S 16 26 29.77 1008 10 16.09344 0 0
1:35 pm 13:35 Mostly Cloudy 90 32 73 23 59 59 S 15 24 29.77 1008 10 16.09344 0 0
1:55 pm 13:55 Mostly Cloudy 90 32 73 23 59 59 S 13 20 29.8 1009 10 16.09344 0 0
2:15 pm 14:15 Cloudy with Nearby Thunderstorms 88 31 73 23 62 62 S 18 30 29.77 1008 10 16.09344 0 0
2:35 pm 14:35 Cloudy with Nearby Thunderstorms 86 30 73 23 66 66 W 6 9 29.77 1008 10 16.09344 0 0
2:55 pm 14:55 Cloudy with Light Thunderstorms 73 23 72 22 94 94 W 12 19 29.83 1010 7 11.265408 0 0
3:15 pm 15:15 Cloudy with Thunderstorms 73 23 73 23 100 100 W 9 15 29.83 1010 1.5 2.414016 0.38 9.652
3:35 pm 15:35 Cloudy with Thunderstorms 73 23 73 23 100 100 SW 8 13 29.83 1010 1.5 2.414016 0.41 10.414
3:55 pm 15:55 Cloudy with Light Thunderstorms 73 23 73 23 100 100 SW 8 13 29.83 1010 10 16.09344 0.43 10.922
4:15 pm 16:15 Cloudy with Light Rain 73 23 73 23 100 100 SW 6 9 29.85 1011 10 16.09344 0.01 0.254
4:35 pm 16:35 Cloudy with Light Rain 73 23 73 23 100 100 SSW 6 9 29.85 1011 7 11.265408 0.02 0.508
4:55 pm 16:55 Cloudy with Light Rain 75 24 73 23 94 94 SW 10 17 29.85 1011 10 16.09344 0.03 0.762
5:15 pm 17:15 Cloudy 73 23 73 23 100 100 WSW 6 9 29.85 1011 10 16.09344 0 0
5:35 pm 17:35 Cloudy with Light Rain 73 23 73 23 100 100 W 6 9 29.85 1011 10 16.09344 0 0
5:55 pm 17:55 Cloudy with Light Rain 73 23 73 23 100 100 WSW 6 9 29.85 1011 10 16.09344 0 0
6:15 pm 18:15 Mostly Cloudy 73 23 73 23 100 100 W 7 11 29.85 1011 10 16.09344 0 0
6:35 pm 18:35 Cloudy 73 23 73 23 100 100 W 6 9 29.85 1011 10 16.09344 0 0
6:55 pm 18:55 Cloudy 73 23 73 23 100 100 Calm 29.85 1011 10 16.09344 0 0
7:15 pm 19:15 Cloudy 75 24 73 23 94 94 Calm 29.85 1011 10 16.09344 0 0
7:35 pm 19:35 Cloudy 75 24 73 23 94 94 Calm 29.85 1011 10 16.09344 0 0
7:55 pm 19:55 Cloudy 75 24 75 24 100 100 SSW 5 7 29.88 1012 10 16.09344 0 0
8:15 pm 20:15 Cloudy 75 24 75 24 100 100 S 6 9 29.88 1012 10 16.09344 0 0
8:35 pm 20:35 Cloudy 73 23 73 23 100 100 SSW 5 7 29.88 1012 10 16.09344 0 0
8:55 pm 20:55 Cloudy 73 23 73 23 100 100 SSW 5 7 29.88 1012 10 16.09344 0 0
9:15 pm 21:15 Cloudy 73 23 73 23 100 100 SSW 6 9 29.91 1013 10 16.09344 0 0
9:35 pm 21:35 Mostly Cloudy 73 23 73 23 100 100 Calm 29.91 1013 10 16.09344 0 0
9:55 pm 21:55 Mostly Cloudy 73 23 73 23 100 100 SSW 3 6 29.91 1013 10 16.09344 0 0
10:15 pm 22:15 Cloudy 73 23 73 23 100 100 Calm 29.91 1013 10 16.09344 0 0
10:35 pm 22:35 Partly Cloudy 73 23 73 23 100 100 SSW 3 6 29.91 1013 10 16.09344 0 0
10:55 pm 22:55 Clear 73 23 73 23 100 100 Calm 29.91 1013 10 16.09344 0 0
11:15 pm 23:15 Mostly Cloudy 73 23 73 23 100 100 S 3 6 29.91 1013 10 16.09344 0 0
11:35 pm 23:35 Cloudy 73 23 73 23 100 100 WSW 5 7 29.94 1014 10 16.09344 0 0
11:55 pm 23:55 Partly Cloudy 73 23 73 23 100 100 WSW 3 6 29.94 1014 10 16.09344 0 0

Powered by AerisWeather